Regional Weather Roundup
Issued by NWS Little Rock, AR

Home | Current Version | Previous Version | Text Only | Print | Product List | Glossary Off
Versions: 1 2 3 4 5 6 7 8 9 10 11 12 13 14 15 16 17 18 19 20 21 22 23 24 25 26 27 28 29 30 31 32 33 34 35 36 37 38 39 40 41 42 43 44 45 46 47 48 49 50

000
ASUS44 KLZK 040605
RWRLZK

WEATHER ROUNDUP FOR ARKANSAS
NATIONAL WEATHER SERVICE LITTLE ROCK AR
100 AM CDT FRI SEP 04 2015

NOTE: "FAIR" INDICATES FEW OR NO CLOUDS BELOW 12,000 FEET WITH NO
SIGNIFICANT WEATHER AND/OR OBSTRUCTIONS TO VISIBILITY.

ARZ001-003-010-029-040700-
NORTHWEST ARKANSAS

CITY           SKY/WX    TMP DP  RH WIND       PRES   REMARKS
FAYETTEVILLE   CLEAR     67  67 100 CALM      29.99R FOG
6HR MIN TEMP:  67; 6HR MAX TEMP:  83;

FORT SMITH     CLEAR     75  69  81 NE6       29.93R
6HR MIN TEMP:  75; 6HR MAX TEMP:  89;

HARRISON       CLEAR     70  68  93 SE3       30.00S
6HR MIN TEMP:  70; 6HR MAX TEMP:  83;

BENTONVILLE    CLEAR     72  64  78 SE6       29.99S
6HR MIN TEMP:  72; 6HR MAX TEMP:  84;

ROGERS         CLEAR     74  69  85 SE7       29.99S
6HR MIN TEMP:  73; 6HR MAX TEMP:  85;

SILOAM SPGS    CLEAR     73  64  73 E7        29.96S
6HR MIN TEMP:  72; 6HR MAX TEMP:  84;

HIGHFILL       CLEAR     71  68  90 CALM      29.98R
6HR MIN TEMP:  71; 6HR MAX TEMP:  84;

$$

ARZ004-005-016-040700-
NORTH CENTRAL ARKANSAS

CITY           SKY/WX    TMP DP  RH WIND       PRES   REMARKS
BATESVILLE     CLEAR     72  70  94 CALM      29.97S
6HR MIN TEMP:  72; 6HR MAX TEMP:  88;

FLIPPIN        CLEAR     72  64  78 CALM      29.96S
6HR MIN TEMP:  72; 6HR MAX TEMP:  88;

MTN HOME       CLEAR     75  68  78 SE3       29.98R
6HR MIN TEMP:  75; 6HR MAX TEMP:  83;

$$

ARZ040-041-040700-
WEST CENTRAL ARKANSAS

CITY           SKY/WX    TMP DP  RH WIND       PRES   REMARKS
MENA           CLEAR     70  68  94 CALM      29.97S
MOUNT IDA      CLEAR     71  68  90 CALM      29.94R
6HR MIN TEMP:  71; 6HR MAX TEMP:  89;

$$

ARZ009-017-025-026-028-040700-
NORTHEAST ARKANSAS

CITY           SKY/WX    TMP DP  RH WIND       PRES   REMARKS
JONESBORO      CLEAR     70  69  97 CALM      29.96R
6HR MIN TEMP:  69; 6HR MAX TEMP:  84;

NEWPORT        CLEAR     74  72  93 CALM      29.96S
6HR MIN TEMP:  74; 6HR MAX TEMP:  87;

WALNUT RIDGE   CLEAR     75  66  73 CALM      29.96S
6HR MIN TEMP:  75; 6HR MAX TEMP:  88;

BLYTHEVILLE    CLEAR     76  72  87 CALM      29.96R
6HR MIN TEMP:  75; 6HR MAX TEMP:  85;

$$

ARZ022-023-033-042-044-040700-
CENTRAL ARKANSAS

CITY           SKY/WX    TMP DP  RH WIND       PRES   REMARKS
LITTLE ROCK    CLEAR     77  69  76 CALM      29.95R
6HR MIN TEMP:  77; 6HR MAX TEMP:  91;

N LITTLE ROCK    N/A     80  70  71 SE5       29.95R
6HR MIN TEMP:  77; 6HR MAX TEMP:  88;

JACKSONVILLE   CLEAR     72  68  89 NE1       29.94S
6HR MIN TEMP:  71; 6HR MAX TEMP:  89;

SEARCY         CLEAR     73  71  93 CALM      29.97S
6HR MIN TEMP:  73; 6HR MAX TEMP:  89;

HOT SPRINGS    CLEAR     76  68  76 CALM      29.95R
6HR MIN TEMP:  76; 6HR MAX TEMP:  90;

RUSSELLVILLE   CLEAR     74  69  85 CALM      29.94R
6HR MIN TEMP:  74; 6HR MAX TEMP:  89;

$$

ARZ036-040700-
EAST ARKANSAS

CITY           SKY/WX    TMP DP  RH WIND       PRES   REMARKS
WEST MEMPHIS   CLEAR     73  73 100 NW3       29.94R
6HR MIN TEMP:  73; 6HR MAX TEMP:  83;

$$

ARZ050-053-066-070-073-040700-
SOUTHWEST ARKANSAS

CITY           SKY/WX    TMP DP  RH WIND       PRES   REMARKS
ARKADELPHIA    FAIR      72  71  96 CALM      29.93S
6HR MIN TEMP:  72; 6HR MAX TEMP:  90;

CAMDEN         CLEAR     72  68  88 CALM      29.92S
TEXARKANA      CLEAR     76  69  79 CALM      29.92S
6HR MIN TEMP:  76; 6HR MAX TEMP:  89;

EL DORADO      CLEAR     74  69  85 CALM      29.92S
6HR MIN TEMP:  73; 6HR MAX TEMP:  90;

DE QUEEN       CLEAR     71  69  93 CALM      29.91S FOG
6HR MIN TEMP:  71; 6HR MAX TEMP:  89;

$$

ARZ056-057-069-040700-
SOUTHEAST ARKANSAS

CITY           SKY/WX    TMP DP  RH WIND       PRES   REMARKS
PINE BLUFF     CLEAR     73  71  93 CALM      29.94R FOG
6HR MIN TEMP:  73; 6HR MAX TEMP:  85;

STUTTGART      CLEAR     79  66  65 E3        29.95S
6HR MIN TEMP:  75; 6HR MAX TEMP:  90;

MONTICELLO     CLEAR     75  72  90 CALM      29.93S
6HR MIN TEMP:  75; 6HR MAX TEMP:  90;


$$




USA.gov is the U.S. government's official web portal to all federal, state and local government web resources and services.